Location: Dessau
(51.7984°N, 12.2168°E)
Time: 15:58:28
(UTC+01:00)

ISS - Visible Passes

Search period start: 23 November 2017 00:00
Search period end: 03 December 2017 00:00
Orbit: 402 x 407 km, 51.6° (Epoch: 24 November)

Date Brightness Start Highest point End Pass type
(mag) Time Alt. Az. Time Alt. Az. Time Alt. Az.
28 Nov -1.4 18:16:51 10° S 18:17:50 14° SSE 18:17:50 14° SSE visible
29 Nov -1.3 17:26:34 10° SE 17:26:52 10° SE 17:27:09 10° SE visible
29 Nov -1.1 18:59:34 10° SW 19:00:25 16° SW 19:00:25 16° SW visible
30 Nov -2.5 18:07:33 10° SSW 18:10:15 27° SSE 18:10:15 27° SSE visible
01 Dec -1.9 17:15:50 10° S 17:18:12 18° SE 17:20:01 13° ESE visible
01 Dec -1.8 18:50:59 10° WSW 18:52:40 27° SW 18:52:40 27° SW visible
02 Dec -3.3 17:58:44 10° SW 18:01:54 44° SSE 18:02:23 40° SE visible
02 Dec -0.2 19:34:58 10° W 19:35:02 11° W 19:35:02 11° W visible
